Location: Rio Negrinho
(26.2394°S, 49.4999°W)
Time: 21:06:26
(UTC+00:00)

SL-24 R/B - Pass Details

Date: 07 June 2020
Orbit: 616 x 1346 km, 97.9° (Epoch: 10 July)

Event Time Altitude Azimuth Distance (km) Brightness Sun altitude
Rises 08:17:06 0° 171° (S) 2,970 7.5 -22.6°
Reaches altitude 10° 08:19:11 10° 172° (S) 2,097 6.7 -22.2°
Maximum altitude 08:23:43 78° 257° (WSW) 743 4.2 -21.2°
Drops below altitude 10° 08:28:54 10° 343° (NNW) 2,396 7.1 -20.1°
Sets 08:31:25 0° 344° (NNW) 3,430 7.9 -19.6°
